This demonstration page uses our WeatherBlox Daily Observations layout. Learn more.

Left ArrowRight Arrow

Hourly Observations for September 24, 2017

Temp ( °F °C ) Dew Point ( °F °C ) Humidity (%) Winds ( mph kmh ) Pressure ( in mb ) Visibility ( mi km ) Precip ( " mm )
12:51 am 00:51 Clear 64 17.8 20 -6.7 18 18 WNW 8 13 29.68 1005 10 16 N/A
1:51 am 01:51 Clear 62 16.7 21 -6.1 21 21 NNW 6 9 29.70 1006 10 16 N/A
2:51 am 02:51 Clear 56 13.3 22 -5.6 27 27 SSW 3 6 29.71 1006 10 16 N/A
3:51 am 03:51 Clear 52 11.1 21 -6.1 30 30 ESE 5 7 29.72 1006 10 16 N/A
4:51 am 04:51 Clear 50 10 21 -6.1 32 32 ESE 3 6 29.73 1007 10 16 N/A
5:51 am 05:51 Clear 48 8.9 20 -6.7 33 33 N N/A 29.76 1008 10 16 N/A
6:51 am 06:51 Sunny 53 11.7 21 -6.1 28 28 N N/A 29.78 1008 10 16 N/A
7:51 am 07:51 Sunny 59 15 23 -5 25 25 S 3 6 29.78 1009 10 16 N/A
8:51 am 08:51 Sunny 65 18.3 23 -5 20 20 N N/A 29.78 1008 10 16 N/A
9:51 am 09:51 Sunny 70 21.1 24 -4.4 18 18 WNW 5 7 29.77 1008 10 16 N/A
10:51 am 10:51 Sunny 74 23.3 26 -3.3 17 17 WSW 6 9 29.75 1008 10 16 N/A
11:51 am 11:51 Sunny 77 25 31 -0.6 18 18 N N/A 29.73 1007 10 16 N/A
12:51 pm 12:51 Sunny 79 26.1 32 undefined 18 18 S 7 11 29.71 1006 10 16 N/A
1:51 pm 13:51 Sunny 83 28.3 31 -0.6 15 15 VRB 6 9 29.68 1005 10 16 N/A
2:51 pm 14:51 Sunny 84 28.9 30 -1.1 14 14 NW 7 11 29.66 1005 10 16 N/A
3:51 pm 15:51 Sunny 84 28.9 31 -0.6 15 15 NW 8 13 29.67 1005 10 16 N/A
4:51 pm 16:51 Sunny 82 27.8 30 -1.1 15 15 WNW 7 11 29.67 1005 10 16 N/A
5:51 pm 17:51 Sunny 80 26.7 30 -1.1 16 16 NW 9 15 29.68 1005 10 16 N/A
6:51 pm 18:51 Clear 75 23.9 25 -3.9 15 15 NW 10 17 29.68 1005 10 16 N/A
7:51 pm 19:51 Clear 73 22.8 19 -7.2 13 13 WNW 14 22 29.68 1005 10 16 N/A
8:51 pm 20:51 Clear 72 22.2 20 -6.7 14 14 WNW 13 20 29.69 1005 10 16 N/A
9:51 pm 21:51 Clear 68 20 21 -6.1 17 17 WNW 13 20 29.70 1006 10 16 N/A
10:51 pm 22:51 Clear 65 18.3 21 -6.1 19 19 WNW 9 15 29.71 1006 10 16 N/A
11:51 pm 23:51 Clear 62 16.7 21 -6.1 21 21 NW 7 11 29.71 1006 10 16 N/A

Powered by AerisWeather